Temp_Advection
nan nan nan nan nan nan nan nan nan nan nan nan nan nan nan nan nan nan nan nan nan nan nan nan nan nan nan nan nan nan nan nan nan
nan 0 0 0 0 -0 -0 0 -0 -0 -0 -0 0 0 0 0 0 0 0 -0 -0 -0 -0 -0 -0 -0 -0 -0 -0 -0 -0 -0 nan
nan 0 0 0 0 -0 -0 0 -0 -0 -0 -0 0 -0 -0 0 0 0 0 -0 -0 -0 -0 -0 -0 -0 -0 -0 -0 -0 -0 -0 nan
nan 0 1 0 -0 0 -0 0 0 -0 -0 -0 0 0 -0 -0 0 0 0 0 -0 -0 -0 -0 -0 -0 -0 -0 -0 -0 -0 -0 nan
nan 1 0 -0 0 1 0 0 0 0 0 -0 -0 0 0 0 -0 0 -0 0 0 -0 -0 -0 -0 -0 -0 -0 -0 -0 -0 -0 nan
nan 0 -0 0 1 1 0 0 0 0 0 -0 -0 0 0 0 0 0 0 -0 -0 -0 -0 -0 -0 -0 -0 -0 -0 -0 -0 -0 nan
nan 0 1 0 1 0 0 0 0 0 0 0 0 0 0 -0 -0 0 0 0 0 0 0 -0 -0 -0 -0 -0 -0 -0 -0 -0 nan
nan 0 0 0 -0 -1 -0 0 0 0 0 0 0 0 0 0 0 0 0 0 0 0 0 0 -0 -0 -0 -0 -0 -0 -0 -0 nan
nan 0 -0 -0 -1 -1 -0 0 0 0 0 0 0 0 0 0 0 0 0 0 0 0 0 0 0 0 0 0 0 -0 -0 -0 nan
nan 1 0 -0 -0 0 0 0 0 0 -0 -0 -0 0 0 0 0 0 0 -0 0 0 0 0 0 0 0 0 0 0 0 -0 nan
nan 1 0 -0 -1 0 0 0 0 0 0 0 0 0 0 0 0 0 0 0 0 0 0 0 -0 -0 -0 0 -0 0 0 0 nan
nan -0 -1 -1 -1 0 0 0 0 0 0 0 0 0 0 0 0 0 0 0 0 0 0 0 0 0 0 -0 -0 -0 0 0 nan
nan -0 -0 -1 0 0 0 0 -0 -0 -0 0 0 0 0 0 0 0 0 0 0 0 0 0 0 0 0 -0 0 0 0 0 nan
nan 0 -0 -0 0 1 0 -0 0 0 0 0 0 0 0 0 0 0 -0 -0 0 0 0 0 0 -0 0 0 -0 0 0 0 nan
nan -0 0 0 1 1 -0 0 0 -0 0 0 0 0 0 0 -0 0 -0 -0 0 0 0 0 -0 -0 0 0 0 0 0 0 nan
nan 0 0 0 0 -0 0 0 -0 0 0 0 0 0 0 -0 0 0 -0 -0 -0 0 0 -0 -0 -0 0 0 0 0 0 0 nan
nan 0 0 0 -0 -0 -0 -0 -0 0 0 0 0 0 -0 -0 0 -0 -0 0 -0 0 0 -0 -0 0 0 0 0 0 0 0 nan
nan 0 0 -0 -1 -1 -0 -0 -0 0 0 0 0 -0 -0 -0 0 0 0 0 0 0 0 -0 0 0 0 0 0 0 0 0 nan
nan 0 -0 -0 -0 -0 -1 -0 -0 -0 -0 -0 -0 -0 -0 0 0 -0 0 0 0 0 0 0 0 0 0 0 -0 0 0 0 nan
nan nan nan nan nan nan nan nan nan nan nan nan nan nan nan nan nan nan nan nan nan nan nan nan nan nan nan nan nan nan nan nan nan
Wind_Speed
19 20 20 19 18 16 14 17 21 20 17 15 11 9 8 9 8 8 8 8 9 9 9 10 9 8 8 8 8 8 9 9 10
19 22 20 19 18 18 17 20 19 18 17 15 11 8 9 8 7 7 7 7 8 8 9 9 8 8 8 8 8 8 8 9 10
20 23 20 17 18 20 22 20 19 17 18 15 11 8 9 8 7 7 6 7 7 7 7 7 7 8 8 8 8 8 9 9 9
19 22 20 19 18 24 23 20 18 18 17 14 10 7 6 6 6 6 6 6 6 6 5 6 6 7 7 7 7 8 8 8 8
21 23 24 20 21 23 22 20 18 18 17 14 11 7 5 5 6 5 4 4 4 4 4 4 5 5 6 5 6 7 6 7 7
24 23 21 20 21 21 22 20 18 17 16 14 11 9 6 4 4 3 3 2 1 2 2 3 3 4 4 5 6 6 7 7 7
26 23 21 22 22 22 23 20 18 17 15 13 12 10 7 5 4 2 1 1 1 1 0 1 2 3 3 3 5 6 6 5 5
25 24 24 25 26 25 23 22 19 17 15 14 13 11 8 6 3 2 2 3 3 3 2 1 1 2 1 1 2 4 5 5 5
28 28 28 28 30 28 25 22 19 17 16 14 13 12 9 7 5 4 4 4 4 5 4 3 3 2 1 2 4 5 4 4 5
31 29 29 30 29 29 26 23 20 18 17 15 13 12 10 8 9 7 4 6 5 5 5 5 5 4 4 5 6 6 6 6 7
26 29 30 28 30 29 26 23 20 19 17 15 15 13 11 9 10 9 7 7 7 5 5 6 6 7 7 7 8 7 7 7 8
17 27 31 30 26 27 25 23 20 19 18 16 14 14 13 13 14 11 9 10 8 7 6 5 7 8 9 10 10 11 11 9 9
29 25 26 30 29 28 27 25 24 21 20 17 16 16 15 15 14 12 11 9 8 8 9 10 11 13 13 13 13 13 13 12 11
31 31 27 29 31 31 30 27 25 23 21 19 17 17 17 17 15 16 14 14 14 12 13 13 14 14 13 12 11 12 13 12 12
33 34 31 28 31 32 29 27 25 25 22 20 19 19 19 20 18 16 18 15 16 16 15 15 16 16 13 11 10 10 12 13 13
35 33 31 33 34 33 30 28 28 27 23 22 21 22 20 21 20 16 15 18 17 20 18 18 18 16 13 11 11 10 10 11 12
37 36 36 35 35 34 33 31 29 26 24 24 19 14 20 23 22 20 21 22 19 21 22 21 20 16 14 13 12 11 10 10 13
36 35 36 40 38 36 34 32 28 28 26 25 16 9 12 16 22 23 25 26 23 24 25 23 18 15 14 14 12 12 11 10 11
38 36 36 38 39 37 35 33 31 28 29 29 27 22 10 12 9 26 27 25 26 28 26 21 16 15 15 14 13 12 12 10 11
38 38 38 39 38 35 35 34 34 32 30 29 25 29 31 20 15 14 23 27 24 23 27 20 16 14 14 15 14 13 12 12 13
Wind_Direction
176 169 171 176 188 182 174 160 149 148 148 142 134 125 113 106 103 100 98 98 96 91 86 83 78 70 65 59 55 49 47 43 39
179 174 181 185 191 187 175 163 156 154 153 151 147 144 123 110 105 101 97 97 95 93 89 84 75 65 58 53 52 53 50 45 38
189 179 182 186 192 181 173 167 162 159 159 158 158 154 132 118 102 103 99 100 100 97 91 83 72 61 53 50 51 53 50 46 41
193 182 186 187 185 172 171 169 166 165 166 165 165 162 142 120 109 101 97 95 101 97 90 77 63 52 47 50 55 53 47 39 36
201 193 196 186 176 173 173 171 169 168 170 172 172 173 168 145 121 103 98 101 99 92 83 71 60 50 48 52 51 43 36 31 32
207 203 198 189 171 182 178 175 173 172 173 176 181 176 189 171 142 119 112 111 107 82 74 66 56 50 51 50 43 34 30 31 32
214 202 201 180 181 186 184 181 180 178 179 180 184 186 201 200 181 161 142 219 222 239 211 57 48 35 43 44 37 34 27 22 23
216 198 198 187 189 189 186 187 186 184 183 183 187 196 208 215 204 222 243 241 254 252 254 263 324 344 338 24 354 2 0 4 4
219 204 203 194 197 190 192 193 191 190 190 191 196 202 213 228 229 208 240 252 256 260 260 270 284 303 287 274 290 314 319 323 338
208 209 205 205 201 194 195 196 196 199 200 202 206 209 214 231 235 232 244 271 262 258 269 274 280 278 284 286 286 285 300 297 312
202 204 204 211 207 197 198 201 203 206 209 213 217 216 216 225 225 226 243 271 259 261 272 272 281 287 287 282 285 285 282 282 288
222 209 211 216 212 205 202 204 205 207 213 221 223 223 227 227 227 231 241 263 254 263 260 277 292 299 290 285 275 279 279 279 289
227 212 219 227 219 210 207 205 208 213 216 220 218 224 226 218 229 239 243 246 258 260 270 284 298 302 290 285 273 257 266 271 275
235 233 222 228 218 210 209 209 215 219 222 225 228 232 227 228 231 232 235 240 248 258 257 271 288 294 284 279 278 267 266 271 275
223 227 231 224 211 209 208 212 218 221 225 229 234 236 237 233 229 238 235 238 250 251 262 267 284 283 272 269 276 273 261 263 271
223 222 230 223 216 213 215 217 219 221 224 231 235 235 231 228 230 224 233 234 243 253 256 266 283 273 264 265 267 270 265 262 265
221 229 225 215 217 222 223 218 218 221 219 216 222 230 233 230 225 225 231 244 239 239 252 266 271 265 266 270 270 273 270 260 256
218 222 220 218 220 220 215 215 218 221 216 217 214 209 218 226 233 229 234 240 240 243 251 262 260 261 273 275 278 278 272 250 253
217 215 224 220 217 216 218 217 220 221 217 215 218 229 224 200 217 231 232 239 237 239 243 246 249 266 277 282 288 284 274 243 246
219 219 221 221 217 222 226 223 225 226 231 229 232 235 233 228 227 232 221 215 209 232 232 232 240 264 276 278 284 278 266 253 232
Height
1535 1537 1538 1540 1542 1544 1546 1547 1549 1550 1551 1552 1552 1553 1553 1554 1554 1554 1554 1554 1553 1553 1553 1553 1553 1553 1552 1552 1551 1551 1550 1549 1549
1535 1537 1538 1540 1542 1544 1547 1548 1550 1551 1552 1553 1554 1554 1555 1555 1556 1555 1555 1555 1555 1555 1554 1554 1554 1554 1553 1553 1552 1551 1551 1551 1550
1534 1536 1538 1540 1542 1543 1547 1549 1550 1552 1553 1554 1554 1555 1556 1556 1557 1557 1557 1556 1556 1556 1556 1555 1555 1555 1554 1553 1553 1552 1552 1551 1550
1534 1537 1539 1540 1540 1544 1546 1549 1550 1551 1553 1554 1555 1555 1556 1556 1557 1558 1558 1558 1557 1557 1557 1557 1556 1556 1555 1554 1554 1554 1553 1552 1551
1533 1536 1537 1539 1541 1544 1546 1548 1550 1552 1553 1554 1555 1556 1556 1557 1557 1558 1559 1558 1558 1558 1557 1557 1557 1556 1556 1555 1555 1554 1553 1553 1552
1532 1533 1535 1538 1541 1543 1546 1548 1550 1552 1553 1554 1555 1556 1556 1557 1557 1558 1558 1558 1558 1558 1558 1557 1557 1556 1556 1556 1556 1554 1553 1553 1552
1530 1532 1534 1537 1541 1543 1545 1547 1549 1551 1553 1554 1555 1555 1556 1557 1557 1558 1558 1558 1558 1558 1558 1557 1557 1556 1556 1556 1556 1555 1553 1553 1552
1528 1530 1533 1535 1538 1540 1543 1545 1547 1549 1552 1553 1554 1554 1555 1555 1556 1557 1558 1557 1558 1557 1557 1557 1556 1556 1556 1555 1555 1555 1554 1553 1552
1526 1527 1530 1532 1534 1537 1541 1544 1547 1548 1550 1551 1553 1553 1553 1554 1555 1555 1557 1556 1556 1557 1557 1556 1555 1554 1554 1554 1554 1554 1553 1553 1552
1521 1525 1528 1529 1532 1535 1539 1542 1544 1546 1548 1549 1550 1551 1552 1552 1553 1554 1555 1556 1555 1556 1556 1555 1555 1554 1553 1553 1553 1553 1553 1552 1552
1511 1521 1527 1528 1531 1534 1537 1540 1542 1544 1545 1547 1548 1548 1549 1550 1551 1552 1553 1554 1554 1554 1554 1555 1554 1553 1552 1552 1551 1551 1550 1550 1550
1519 1522 1525 1527 1530 1533 1535 1538 1540 1541 1543 1543 1544 1545 1546 1548 1549 1549 1550 1552 1553 1552 1552 1553 1553 1553 1552 1550 1550 1549 1549 1548 1548
1517 1518 1520 1525 1528 1530 1533 1534 1536 1538 1540 1541 1542 1543 1544 1544 1546 1547 1548 1549 1550 1550 1550 1550 1551 1550 1550 1549 1547 1546 1546 1546 1546
1512 1515 1518 1523 1523 1524 1529 1531 1533 1534 1536 1537 1539 1540 1541 1542 1543 1543 1544 1546 1548 1548 1547 1547 1548 1547 1547 1546 1545 1543 1544 1544 1544
1503 1509 1513 1518 1519 1522 1524 1526 1529 1531 1533 1535 1536 1538 1538 1538 1539 1540 1541 1542 1544 1545 1545 1544 1544 1544 1543 1543 1542 1541 1540 1541 1541
1501 1502 1508 1512 1516 1518 1519 1522 1524 1526 1529 1531 1532 1533 1534 1534 1535 1536 1537 1537 1538 1542 1541 1541 1541 1541 1540 1540 1539 1538 1538 1538 1539
1494 1499 1501 1505 1510 1513 1515 1517 1519 1522 1524 1525 1528 1530 1531 1529 1531 1532 1533 1535 1533 1536 1538 1538 1538 1538 1537 1536 1536 1536 1536 1535 1535
1488 1493 1497 1501 1504 1507 1509 1513 1514 1515 1518 1520 1523 1524 1522 1524 1526 1527 1528 1530 1529 1531 1532 1534 1533 1534 1533 1533 1533 1532 1532 1532 1532
1484 1487 1493 1496 1499 1500 1503 1506 1508 1510 1512 1514 1516 1519 1519 1519 1520 1523 1522 1525 1526 1526 1527 1528 1528 1529 1529 1530 1529 1529 1528 1528 1530
1476 1480 1485 1491 1492 1496 1499 1500 1502 1503 1503 1506 1509 1513 1514 1513 1516 1516 1516 1518 1519 1523 1518 1522 1521 1524 1525 1526 1525 1525 1525 1524 1526